Location: Sorocaba
(23.4830°S, 47.4500°W)
Time: 12:30:36
(UTC-03:00)

N. Korean satellite - Pass Details

Date: 24 May 2022
Orbit: 432 x 477 km, 97.3° (Epoch: 03 July)

Event Time Altitude Azimuth Distance (km) Brightness Sun altitude
Rises 17:59:40 0° 194° (SSW) 2,478 10.1 -6.6°
Reaches altitude 10° 18:02:22 10° 218° (SW) 1,607 9.5 -7.2°
Maximum altitude 18:04:22 15° 254° (WSW) 1,338 9.7 -7.7°
Drops below altitude 10° 18:06:23 10° 290° (WNW) 1,610 11.0 -8.1°
Sets 18:09:07 0° 314° (NW) 2,487 11.5 -8.7°
